DELTA 1 DEB, 10656

Orbit data source: Space-Track

DELTA 1 DEB, 10656 is space debris in SSO originally from a launch on Thu, 29 Jul 1976 UTC launched from the Air Force Western Test Range (AFWTR). Debris objects in space refer to the collection of defunct objects orbiting the Earth. Examples of debris include non-operational satellites, rocket bodies, and fragments generated from explosions, collisions, or faulty payload assembly.

Loading next visibility...
Identifier
10656, 1976-077S
Orbit
SSO
Country
Flag of USUS
Related business
Manufacturer
Unknown
Mission
Spacecraft
Bus & Motor
Unknown
Mass
Unknown
Launch date (UTC)
1976-07-29 (50 years ago)
Launch vehicle
Unknown
Launch site
Air Force Western Test Range (AFWTR)
Object type
Payload
Rocket body
Debris
Shape & HBR
Unknown shape, 0.6 m
Radar Cross Section
Medium (>0.1 m² and <1 m²)

Expand to show TLE details & history
Last TLE update: 5 hours ago

TLE from 5 hours ago
0 DELTA 1 DEB
1 10656U 76077S   26130.50383269  .00000008  00000-0  39762-3 0  9991
2 10656 101.8624 102.6942 0076684 193.2930 281.8218 12.37117721247054
Epoch: 2026-05-10T12:05Z
TLE epoch observation values (Epoch: 2026-05-10T12:05:31.144Z)
Latitude
63.24664°
Longitude
-102.49542°
Altitude
1,517.573 km
Speed
7.118 km/s
True Right ascension
20h 28m 45s
True Declination
63° 07' 17"
Sunlit
Object was in daylight at epoch
Visualization orbit readout
Latitude
Unknown
Longitude
Unknown
Altitude
Unknown
Speed
Unknown
Apparent Right ascension
Unknown
Apparent Declination
Unknown
Sunlit
N/A
Visualization observer readout
Local Sidereal Time
01:40:41
Azimuth
Unknown
Elevation
Unknown
Doppler factor
Unknown
Orbital elements
Apogee altitude
1,576.954 km
Perigee altitude
1,455.877 km
Semi-major axis
7,894.552 km
Eccentricity
0.00767
Inclination
101.8624°
RAAN
102.6942°
Arg. of periapsis
193.293°
True anomaly
280.96004°
Mean anomaly
281.8218°
Eccentric anomaly
281.39109°
Mean motion
3.09423 °/min
Orbital period
116.35 mins
BSTAR
0.00039762
Loading maneuver chart data...
Computing Atmospheric mass density...
Loading historical data...
Loading historical data...
Loading historical data...
Loading historical data...
Loading historical data...
Loading historical data...
Loading historical data...

Documentation

Showing up to 5 results
|